PAGEOS 1 DEB, 2511

Orbit data source: Space-Track

PAGEOS 1 DEB, 2511 is space debris in LEO originally from a launch on Fri, 24 Jun 1966 UTC launched from the Air Force Western Test Range (AFWTR). Debris objects in space refer to the collection of defunct objects orbiting the Earth. Examples of debris include non-operational satellites, rocket bodies, and fragments generated from explosions, collisions, or faulty payload assembly.

Loading next visibility...
PAGEOS 1 DEB details
Identifier
2511, 1966-056D
Orbit
LEO
Last TLE update20 hours ago
Origin
Flag of USNASA LaRC (US)
ManufacturerGoodyear
MissionSpacecraft
Bus & MotorECHO CANISTER, Unknown motor
Mass9 kg wet, 9 kg dry
Launch date (UTC)
1966-06-24 (58 years ago)
Launch vehicleUnknown
Launch site
Air Force Western Test Range (AFWTR)
Object type
Payload
Rocket body
Debris
Shape & HBRHalf Sphere, Unknown HBR
Radar Cross Section0.377 m², Large (>1 m²)

Expand to show TLE details & history

TLE from 20 hours ago
0 PAGEOS 1 DEB
1  2511U 66056D   24355.75634231  .00000030  00000-0  26834-1 0  9999
2  2511  86.9830 272.4917 0013828 259.0932 100.8318  7.93367518694604
Epoch: 2024-12-20T18:09Z
Definitive object data (Epoch: 2024-12-20T18:09:07.975Z)
Latitude-0.00003°
Longitude-89.60882°
Altitude4,245.751 km
Speed6.125 km/s
True Right ascension18h 09m 58s
True Declination0° 00' 00"
Sunlit
Object was in daylight at TLE epoch
Visualization TLE readout
Latitude-57.3789°
Longitude95.02307°
Altitude4,249.237 km
Speed6.129 km/s
Apparent Right ascension04h 08m 47s
Apparent Declination-57° 19' 17"
Sunlit
Object is in daylight
Visualization observer readout
Local Sidereal Time13:20:21
Azimuth222.977° SW
Elevation-57.921°
Doppler factor1
Orbital elements
Apogee altitude4,253.542 km
Perigee altitude4,224.18 km
Semi-major axis10,616.998 km
Eccentricity0.0013828
Inclination86.983°
RAAN272.4917°
Arg. of periapsis259.0932°
True anomaly100.98738°
Mean anomaly100.8318°
Eccentric anomaly100.9096°
Mean motion1.984 °/min
BSTAR0.026834
Orbital period181.45 mins
Loading maneuver chart data...

PAGEOS 1 DEB Visibility forecast

Observer location: undefined°, undefined

Span
Click to sort rows by Start time (UTC) header in descending order
Start Az.
Max El. time (UTC)
Max El. Az.
Max El.
End time (UTC)
End Az.
20 mins2024-12-21 15:37:14.723Z79.746° E2024-12-21 15:47:14.723Z50.272° ENE15.779°2024-12-21 15:57:14.723Z20.686° NNE
41 mins2024-12-21 18:22:14.723Z162.343° S2024-12-21 18:42:14.723Z78.729° E43.781°2024-12-21 19:03:14.723Z4.574° NNE
36 mins2024-12-21 21:29:14.723Z237.944° WSW2024-12-21 21:46:14.723Z294.493° NW27.898°2024-12-21 22:05:14.723Z356.318° N
37 mins2024-12-22 04:16:14.723Z5.741° NNE2024-12-22 04:34:14.723Z66.444° ENE29.529°2024-12-22 04:53:14.723Z129.092° SE
41 mins2024-12-22 07:18:14.723Z354.531° N2024-12-22 07:38:14.723Z277.524° WNW43.097°2024-12-22 07:59:14.723Z200.309° SSW
17 mins2024-12-22 10:24:14.723Z335.873° NNW2024-12-22 10:32:14.723Z312.28° NW14.312°2024-12-22 10:41:14.723Z285.968° WNW
|